Weather History for KRUT - February, 2015

Change the Weather History Date:

Saturday, February 21, 2015

  Actual Average Record
Temperature  
Mean Temperature 10 °F -  
Max Temperature 27 °F - 65 °F (1953)
Min Temperature -8 °F - -16 °F (1950)
Degree Days  
Heating Degree Days 55    
Month to date heating degree days 1182  
Since 1 July heating degree days 5352  
Cooling Degree Days 0    
Month to date cooling degree days 0  
Year to date cooling degree days 0  
Moisture  
Dew Point 0 °F    
Average Humidity 63    
Maximum Humidity 100    
Minimum Humidity 25    
Precipitation  
Precipitation 0.00 in - 1.15 in (1989)
Month to date precipitation 0.05  
Year to date precipitation 1.70  
Sea Level Pressure  
Sea Level Pressure 30.22 in    
Wind  
Wind Speed 8 mph (SE)    
Max Wind Speed 16 mph    
Max Gust Speed 22 mph    
Visibility 7 miles    
Events      
T = Trace of Precipitation, MM = Missing Value Source: NWS Daily Summary

Daily Weather History Graph

Daily Weather History Graph

Search for Another Location

Airport or City:

Trip Planner

Search our weather history database for the weather conditions in past years. The results will help you decide how hot, cold, wet, or windy it might be!

Date:

Astronomy

Feb. 21, 2015 Rise Set
Actual Time 6:41 AM EST 5:29 PM EST
Civil Twilight 6:12 AM EST 5:59 PM EST
Nautical Twilight 5:39 AM EST 6:32 PM EST
Astronomical Twilight 5:06 AM EST 7:05 PM EST
Moon 8:05 AM EST (2/21) 9:09 PM EST (2/21)
Length of Visible Light 11h 46m
Length of Day
10h 48m
Waxing Crescent, 11% of the Moon is Illuminated
Feb 21
Waxing Crescent
Feb 25
First Quarter
Mar 5
Full
Mar 13
Last Quarter
Mar 20
New

Hourly Weather History & Observations

Time (EST) Temp. Windchill Dew Point Humidity Pressure Visibility Wind Dir Wind Speed Gust Speed Precip Events Conditions
12:15 AM 3.2 °F -6.2 °F -7.6 °F 61% 30.35 in 10.0 mi SSW 4.6 mph - N/A   Clear
12:35 AM 1.4 °F - -9.4 °F 61% 30.36 in 10.0 mi Calm Calm - N/A   Clear
12:55 AM 1.4 °F - -9.4 °F 61% 30.36 in 10.0 mi Calm Calm - N/A   Clear
1:15 AM -2.2 °F - -13.0 °F 60% 30.36 in 10.0 mi Calm Calm - N/A   Clear
1:35 AM -0.4 °F - -0.4 °F 100% 30.37 in 10.0 mi Calm Calm - N/A   Clear
1:55 AM -2.2 °F - -14.8 °F 55% 30.37 in 10.0 mi Calm Calm - N/A   Clear
2:15 AM -2.2 °F - - N/A% 30.35 in 10.0 mi Calm Calm - N/A   Clear
2:35 AM -5.8 °F -16.7 °F -25.6 °F 38% 30.35 in 10.0 mi SE 4.6 mph - N/A   Clear
2:55 AM -5.8 °F - -20.2 °F 50% 30.35 in 10.0 mi Calm Calm - N/A   Clear
3:15 AM -5.8 °F - -16.6 °F 60% 30.35 in 10.0 mi Calm Calm - N/A   Clear
3:35 AM -7.6 °F -18.8 °F -18.4 °F 59% 30.35 in 10.0 mi SSE 4.6 mph - N/A   Clear
3:55 AM -7.6 °F -20.6 °F -16.6 °F 65% 30.36 in 10.0 mi SE 5.8 mph - N/A   Clear
4:15 AM -5.8 °F -21.2 °F -11.2 °F 77% 30.35 in 10.0 mi SE 8.1 mph - N/A   Clear
4:35 AM -5.8 °F -19.9 °F -16.6 °F 60% 30.34 in 10.0 mi SE 6.9 mph - N/A   Clear
4:55 AM -4.0 °F -21.2 °F -14.8 °F 60% 30.33 in 10.0 mi SE 10.4 mph - N/A   Clear
5:15 AM -2.2 °F -19.9 °F -14.8 °F 55% 30.32 in 10.0 mi SE 11.5 mph - N/A   Scattered Clouds
5:35 AM -2.2 °F -20.7 °F -11.2 °F 66% 30.33 in 10.0 mi SE 12.7 mph - N/A   Overcast
5:55 AM -2.2 °F -20.7 °F -14.8 °F 55% 30.33 in 10.0 mi SE 12.7 mph - N/A   Overcast
6:15 AM -0.4 °F -16.7 °F -16.6 °F 46% 30.31 in 10.0 mi SE 10.4 mph - N/A   Overcast
6:35 AM -2.2 °F -14.2 °F -16.6 °F 50% 30.33 in 10.0 mi SSE 5.8 mph - N/A   Overcast
6:55 AM -0.4 °F -16.7 °F -9.4 °F 66% 30.33 in 10.0 mi ESE 10.4 mph - N/A   Overcast
7:15 AM -0.4 °F -15.7 °F -4.0 °F 85% 30.32 in 10.0 mi SE 9.2 mph - N/A   Overcast
7:35 AM -0.4 °F -10.4 °F - N/A% 30.32 in 10.0 mi WSW 4.6 mph - N/A   Scattered Clouds
7:55 AM -0.4 °F -12.0 °F -23.8 °F 32% 30.34 in 10.0 mi SSE 5.8 mph - N/A   Partly Cloudy
8:15 AM 1.4 °F - -16.6 °F 43% 30.35 in 10.0 mi Calm Calm - N/A   Mostly Cloudy
8:35 AM 5.0 °F -5.6 °F -16.6 °F 36% 30.32 in 10.0 mi SE 5.8 mph - N/A   Mostly Cloudy
8:55 AM 3.2 °F -4.2 °F -14.8 °F 43% 30.32 in 10.0 mi WNW 3.5 mph - N/A   Mostly Cloudy
9:15 AM 5.0 °F -2.1 °F -9.4 °F 52% 30.31 in 10.0 mi SE 3.5 mph - N/A   Partly Cloudy
9:35 AM 8.6 °F - -11.2 °F 40% 30.30 in 10.0 mi Calm Calm - N/A   Clear
9:55 AM 12.2 °F - -2.2 °F 53% 30.28 in 10.0 mi Calm Calm - N/A   Clear
10:15 AM 14.0 °F 3.9 °F -9.4 °F 35% 30.27 in 10.0 mi WSW 6.9 mph - N/A   Partly Cloudy
10:35 AM 15.8 °F 7.2 °F -13.0 °F 27% 30.24 in 10.0 mi SW 5.8 mph - N/A   Partly Cloudy
10:55 AM 17.6 °F 10.7 °F -11.2 °F 27% 30.23 in 10.0 mi WSW 4.6 mph - N/A   Mostly Cloudy
11:15 AM 19.4 °F - -11.2 °F 25% 30.22 in 10.0 mi Calm Calm - N/A   Overcast
11:35 AM 19.4 °F 5.5 °F -9.4 °F 28% 30.20 in 10.0 mi SE 15.0 mph - N/A   Overcast
11:55 AM 19.4 °F 5.5 °F -9.4 °F 28% 30.18 in 10.0 mi ESE 15.0 mph - N/A   Overcast
12:15 PM 19.4 °F 4.5 °F -7.6 °F 30% 30.18 in 10.0 mi ESE 17.3 mph 24.2 mph N/A   Mostly Cloudy
12:35 PM 19.4 °F 4.5 °F -7.6 °F 30% 30.18 in 10.0 mi ESE 17.3 mph - N/A   Overcast
12:55 PM 19.4 °F 5.0 °F -7.6 °F 30% 30.17 in 10.0 mi SE 16.1 mph 19.6 mph N/A   Overcast
1:15 PM 21.2 °F 11.7 °F -5.8 °F 30% 30.17 in 10.0 mi SE 8.1 mph 18.4 mph N/A   Overcast
1:35 PM 26.6 °F 15.2 °F -7.6 °F 22% 30.17 in 10.0 mi South 13.8 mph 17.3 mph N/A   Overcast
1:55 PM 26.6 °F 15.2 °F -5.8 °F 24% 30.17 in 10.0 mi South 13.8 mph 21.9 mph N/A   Overcast
2:15 PM 24.8 °F 13.4 °F - N/A% 30.16 in 10.0 mi South 12.7 mph 23.0 mph N/A   Overcast
2:35 PM 23.0 °F 10.6 °F 10.4 °F 59% 30.17 in 3.0 mi South 13.8 mph 27.6 mph N/A   Overcast
2:55 PM 21.2 °F 10.1 °F 14.0 °F 74% 30.17 in 1.5 mi SSW 10.4 mph 20.7 mph N/A   Overcast
3:15 PM 21.2 °F 10.1 °F 15.8 °F 80% 30.17 in 1.8 mi South 10.4 mph 19.6 mph N/A   Overcast
3:35 PM 21.2 °F 13.6 °F 15.8 °F 80% 30.16 in 3.0 mi South 5.8 mph - N/A   Overcast
3:55 PM 19.4 °F 6.0 °F 14.0 °F 80% 30.15 in 2.0 mi ESE 13.8 mph 18.4 mph N/A   Overcast
4:15 PM 19.4 °F 4.5 °F 15.8 °F 86% 30.15 in 1.2 mi ESE 17.3 mph - N/A   Overcast
4:35 PM 17.6 °F 3.7 °F 15.8 °F 93% 30.13 in 1.2 mi SE 13.8 mph - N/A   Overcast
4:55 PM 17.6 °F 3.2 °F 14.0 °F 86% 30.12 in 1.5 mi SE 15.0 mph - N/A   Overcast
5:15 PM 17.6 °F 3.7 °F 14.0 °F 86% 30.11 in 1.8 mi ESE 13.8 mph - N/A   Overcast
5:35 PM 17.6 °F 3.7 °F 15.8 °F 93% 30.11 in 1.8 mi SE 13.8 mph - N/A   Overcast
5:55 PM 17.6 °F 4.3 °F 15.8 °F 93% 30.10 in 2.5 mi ESE 12.7 mph - N/A   Overcast
6:15 PM 17.6 °F 5.0 °F 15.8 °F 93% 30.10 in 2.5 mi ESE 11.5 mph - N/A   Overcast
6:35 PM 19.4 °F 6.0 °F 15.8 °F 86% 30.10 in 2.5 mi SE 13.8 mph - N/A   Overcast
6:55 PM 19.4 °F 8.6 °F 15.8 °F 86% 30.09 in 2.5 mi ESE 9.2 mph - N/A   Overcast
7:15 PM 19.4 °F 10.4 °F 15.8 °F 86% 30.09 in 3.0 mi ESE 6.9 mph - N/A   Overcast
7:35 PM 19.4 °F 9.5 °F 17.6 °F 93% 30.08 in 4.0 mi ESE 8.1 mph - N/A   Overcast
7:55 PM 19.4 °F 9.5 °F 17.6 °F 93% 30.08 in 1.8 mi ESE 8.1 mph - N/A   Overcast
8:15 PM 19.4 °F 10.4 °F 17.6 °F 93% 30.08 in 2.0 mi ESE 6.9 mph - N/A   Overcast
8:35 PM 19.4 °F 10.4 °F 17.6 °F 93% 30.08 in 1.8 mi ESE 6.9 mph - N/A   Overcast
8:55 PM 19.4 °F 11.5 °F 17.6 °F 93% 30.08 in 2.0 mi ESE 5.8 mph - N/A   Overcast
9:15 PM 21.2 °F - 19.4 °F 93% 30.08 in 2.0 mi Calm Calm - N/A   Overcast
9:35 PM 19.4 °F - 17.6 °F 93% 30.08 in 1.0 mi Calm Calm - N/A   Overcast
9:55 PM 19.4 °F - 17.6 °F 93% 30.08 in 1.5 mi Calm Calm - N/A   Overcast
10:15 PM 19.4 °F - 17.6 °F 93% 30.08 in 2.5 mi Calm Calm - N/A   Overcast
10:35 PM 19.4 °F 14.3 °F 19.4 °F 100% 30.08 in 2.5 mi North 3.5 mph - N/A   Overcast
10:55 PM 19.4 °F - 19.4 °F 100% 30.08 in 2.5 mi Calm Calm - N/A   Overcast
11:15 PM 19.4 °F - 17.6 °F 93% 30.08 in 1.5 mi Calm Calm - N/A   Overcast
11:35 PM 19.4 °F - 17.6 °F 93% 30.08 in 1.8 mi Calm Calm - N/A   Overcast
11:55 PM 19.4 °F - 17.6 °F 93% 30.07 in 2.0 mi Calm Calm - N/A   Overcast